Regional Weather Roundup
Issued by NWS Newport/Morehead, NC

Current Version | Previous Version | Text Only | Print | Product List | Glossary On
Versions: 1 2 3 4 5 6 7 8 9 10 11 12 13 14 15 16 17 18 19 20 21 22 23 24 25 26 27 28 29 30 31 32 33 34 35 36 37 38 39 40 41 42 43 44 45 46 47 48 49 50
000
ASUS42 KMHX 221814
RWRMHX
WEATHER ROUNDUP FOR EASTERN NORTH CAROLINA
NATIONAL WEATHER SERVICE NEWPORT/MOREHEAD CITY NC
200 PM EDT TUE AUG 22 2017

NOTE: "FAIR" INDICATES FEW OR NO CLOUDS BELOW 12,000 FEET
WITH NO SIGNIFICANT WEATHER AND/OR OBSTRUCTIONS TO VISIBILITY

NCZ015>017-031-032-045>047-102-103-221900-
NORTH COAST

CITY           SKY/WX    TMP DP  RH WIND       PRES   REMARKS
EDENTON        SUNNY     89  76  64 CALM      30.06F HX 100
ELIZABETH CITY MOSUNNY   90  77  65 SW13      30.05F HX 103
KITTY HAWK     MOCLDY    86  73  65 S9        30.06S
MANTEO         PTSUNNY   83  77  83 S14       30.07F

$$

NCZ045>047-081-094-103-104-221900-
CENTRAL COAST

CITY           SKY/WX    TMP DP  RH WIND       PRES   REMARKS
FRISCO         SUNNY     87  78  74 SW10      30.09F HX 100

$$

NCZ095-097-098-100-101-221900-
SOUTHERN COAST

CITY           SKY/WX    TMP DP  RH WIND       PRES   REMARKS
BEAUFORT       MOSUNNY   83  78  85 SW6       30.08F
CEDAR ISLAND   NOT AVBL
JACKSONVILLE   PTSUNNY   80  79  96 S3        30.07F
PINEY ISLAND   LGT RAIN N/A N/A N/A SW6       30.08F
WILMINGTON     CLOUDY    88  73  61 S7        30.07F


$$

NCZ011>013-027>030-043-044-078>080-089-090>093-098-221900-
COASTAL PLAIN

CITY           SKY/WX    TMP DP  RH WIND       PRES   REMARKS
AHOSKIE          N/A     86  75  70 S6        30.06S
CLINTON        MOSUNNY   86  77  74 W3        30.07F
ELIZABETHTOWN  NOT AVBL
GOLDSBORO      PTSUNNY   89  77  69 S9        30.05F HX 101
GREENVILLE     MOSUNNY   88  73  62 W5        30.07F
HAVELOCK       LGT RAIN  78  75  90 CALM      30.10F
KENANSVILLE    CLOUDY    84  77  79 CALM      30.08F
KINSTON        CLOUDY    88  73  62 S13       30.07F
NEW BERN       LGT RAIN  78  76  93 S10       30.10S
RICHLANDS      NOT AVBL
ROCKY MOUNT    MOSUNNY   88  73  61 W7        30.06F
WASHINGTON     MOSUNNY   89  75  63 S9        30.06F
WHITEVILLE     PTSUNNY   90  73  56 SW6       30.07F

$$

AMZ130-135-150-152-154-156-158-170-250-252-270-ANZ085-086-088-633-658-670-221900-
MARINE OBSERVATIONS

STATION/POSITION TIME  TEMP    WIND        PRES    WAVE   SWELL
                       AIR SEA DIR/SP/G            HT/PER HT/PER
                 (UTC) (F)     (DEG/KT/KT) (MB)    (FT/S) (FT/S)
CHESAPEAKE LIGHT NOT AVBL
64 E VA BEACH    1750   80 80  200/ 10/ 12 1018.7    3/11   2/11
DUCK             1742   83 77  130/ 10/ 13 1017.7
2 E DUCK         1700      82                N/A     2/12   2/12
OREGON INLET     1742   83 79  180/ 12/ 14 1018.3
13E OREGON INLT  1748      81                N/A     3/11   3/11
HATTERAS CG      1742   85 83  200/  6/ 10 1018.9
DIAMOND BUOY     1750   83 87  190/ 12/ 14 1018.8    3/10   3/10
CAPE LOOKOUT     1800   84     200/  8/ 11 1018.3
BEAUFORT LAB     1742   83 81  190/  6/  8 1018.3
30 SE NEW RVR IN 1708   82 84  210/  8/ 10 1019.5
30 SE NEW RVR IN 1713      84                N/A     5/11   3/11
27 SE WRIGHTSVLE 1708   83 84  190/  4/  6 1019.4
5 SE WRIGHTSVLE  1708   82 83  160/  8/ 12 1019.0
225 S CAPE HAT   1750   83 85  140/  8/ 10 1019.8    5/ 9   5/ 9
41 SE CHARLESTON 1750   84 85  220/  6/  6 1018.8    4/10   3/10

$$



USA.gov is the U.S. government's official web portal to all federal, state and local government web resources and services.